Location: Ripley
(48.3812°N, 115.4473°W)
Time: 05:08:48
(UTC+00:00)

O/OREOS (USA 219) - Pass Details

Date: 07 July 2022
Orbit: 621 x 646 km, 72.0° (Epoch: 22 May)

Event Time Altitude Azimuth Distance (km) Brightness Sun altitude
Rises 06:05:28 0° 337° (NNW) 2,967 ? -15.5°
Reaches altitude 10° 06:07:51 10° 344° (NNW) 2,055 ? -15.7°
Maximum altitude 06:12:18 45° 58° (ENE) 886 ? -16.0°
Enters shadow 06:14:57 22° 120° (ESE) 1,419 ? -16.1°
